Theta_e
325 325 323 321 321 321 322 324 332 332 330 335 335 334 333 332 333 332 334 333 331 335 338 335 335 333 332 333 336 341 340 338 342 341 341 339 328 332 336 333 336 333 334 336 336 335 333 333 333 335 338 338 338 338 339 339 339 340 340 340 340 340 340 340 340 339 338 338 337 337 336 335 335 335 333 333 332 333 335 338 338 338 336 335 337 339 339 339 340 340 340 339 339 338 338 338 336
324 323 322 321 322 322 325 327 333 333 331 334 334 335 333 331 331 333 336 337 338 335 335 333 331 331 331 333 331 332 334 332 335 337 335 330 327 334 334 334 336 334 335 336 336 335 333 334 333 334 337 338 338 338 339 339 339 340 340 339 340 340 340 339 339 339 338 338 337 337 337 336 335 335 335 334 334 333 334 337 337 337 338 337 338 339 340 339 340 340 339 338 338 338 336 336 336
322 322 321 323 321 322 326 328 333 332 333 335 334 334 330 332 334 335 336 336 337 333 331 328 327 330 328 330 327 328 336 333 331 337 336 327 330 334 333 334 333 334 334 335 337 335 334 333 333 334 335 337 337 338 338 338 339 339 340 339 339 339 339 339 338 339 338 337 337 336 336 336 336 336 336 335 336 335 335 336 336 336 337 338 338 339 339 339 340 340 339 338 337 336 335 335 335
321 322 321 322 322 324 329 330 335 334 334 335 336 335 332 336 336 336 337 335 332 328 327 324 325 326 323 329 326 325 331 330 327 335 336 327 330 332 331 332 330 331 332 334 336 335 335 333 333 334 334 336 337 338 338 338 338 338 339 339 339 339 338 338 338 338 337 337 336 336 335 335 334 335 335 335 336 335 335 336 336 336 337 338 338 338 339 340 340 340 339 337 337 336 335 335 334
321 321 320 321 324 327 329 328 330 333 333 335 340 337 336 340 336 335 337 336 333 330 328 322 325 323 320 326 325 326 329 328 325 328 329 327 328 327 328 329 328 329 329 333 335 336 335 334 334 333 334 335 336 337 337 338 338 337 338 338 339 339 339 338 338 337 337 337 336 335 334 333 333 334 335 334 335 335 335 335 336 336 337 338 339 339 339 340 340 340 339 337 337 335 335 334 333
320 320 320 318 319 323 327 329 330 333 332 331 338 336 333 337 335 335 336 335 334 335 330 322 324 323 322 323 321 324 326 326 326 328 328 328 328 325 326 326 325 327 328 332 335 336 336 335 334 333 334 334 336 337 336 336 336 336 336 337 338 338 338 338 337 337 336 335 334 334 333 332 333 334 334 334 334 334 334 334 336 336 336 338 339 339 339 340 340 339 339 337 336 335 335 333 332
319 319 322 322 320 322 329 334 335 335 330 327 333 335 332 331 331 331 332 330 329 331 326 323 323 322 325 321 321 322 321 324 324 328 328 327 328 325 325 325 325 327 328 330 333 336 336 336 334 333 334 333 336 337 337 336 336 336 335 336 335 336 336 335 335 335 334 333 333 333 333 332 332 333 334 334 334 334 334 334 335 335 336 338 339 339 339 339 339 339 338 337 336 336 334 333 332
320 320 324 329 328 325 329 332 332 331 329 325 325 330 330 327 327 326 327 327 326 327 324 326 323 323 325 320 324 324 319 323 323 326 326 324 326 325 325 325 326 327 328 330 332 335 336 336 334 334 333 333 335 337 338 337 337 336 335 336 335 334 333 333 333 332 332 333 334 334 333 332 332 333 333 334 334 334 333 333 334 335 336 338 338 339 339 339 339 339 338 337 336 335 334 333 331
319 320 322 327 329 326 329 330 328 327 327 326 324 327 329 329 327 324 326 325 325 327 326 326 322 324 327 321 326 324 319 323 322 325 325 322 324 324 324 324 325 326 327 329 331 334 336 336 335 334 334 334 333 335 338 338 338 337 336 336 336 334 333 333 333 334 334 334 335 334 334 333 332 333 333 332 333 334 333 333 334 335 336 337 338 338 338 339 339 338 337 337 336 335 334 332 330
319 321 323 327 327 327 330 330 329 327 326 327 325 325 326 326 325 324 325 324 323 324 324 324 320 323 325 322 327 322 321 323 321 324 325 323 323 323 323 323 324 325 326 328 331 332 335 336 335 335 334 334 334 334 337 338 338 338 337 337 336 335 334 335 335 335 335 335 335 334 334 333 332 332 332 331 331 332 332 333 334 334 336 337 337 337 338 338 339 338 337 336 336 335 334 332 330
324 325 327 327 327 329 330 329 330 329 328 326 324 327 326 321 321 325 325 324 323 322 323 322 320 324 322 324 329 322 320 322 322 324 324 324 323 321 322 323 324 325 327 329 331 332 334 336 336 335 334 334 334 334 335 337 338 338 338 337 337 337 336 337 336 336 336 336 335 334 334 333 332 331 331 330 330 331 331 332 333 334 334 335 336 337 338 338 338 338 337 336 336 335 334 333 331
327 328 330 330 329 331 329 330 331 330 332 329 327 328 324 319 321 324 326 325 325 324 324 323 319 321 323 327 328 320 319 320 320 322 324 327 325 324 324 325 327 328 329 331 332 333 334 336 336 335 334 334 334 334 335 335 337 338 338 338 338 338 337 337 337 337 336 336 335 334 333 332 330 329 330 329 329 330 330 331 332 333 333 334 335 336 337 337 338 338 336 336 336 335 335 333 331
330 329 331 329 328 329 328 331 331 329 333 332 327 326 321 320 322 323 325 326 325 322 320 320 317 318 322 325 326 324 322 319 318 320 323 326 327 327 328 330 331 332 333 333 333 333 334 335 336 335 334 334 334 334 334 335 336 337 338 338 338 338 338 337 337 337 336 335 335 334 333 331 329 328 329 329 329 329 330 330 330 332 333 334 334 335 336 337 338 337 337 336 336 335 335 333 330
331 330 331 327 326 328 328 329 330 328 331 331 324 325 324 321 321 321 323 327 326 320 316 316 315 318 320 322 331 332 322 316 317 319 321 325 327 327 329 331 332 333 334 335 335 335 335 335 336 335 335 335 334 334 334 334 336 336 337 337 337 338 338 337 337 336 335 334 334 333 332 330 329 329 328 329 329 328 328 328 329 330 331 333 333 334 335 336 337 337 337 336 336 335 334 332 329
325 330 332 330 328 328 328 327 328 328 330 327 321 323 325 320 321 322 322 324 326 319 314 315 314 317 318 319 328 326 318 317 318 318 321 324 326 327 328 329 330 331 332 333 335 335 336 336 336 335 335 335 334 334 334 334 335 336 337 337 336 337 337 337 337 336 334 333 333 332 331 330 329 329 328 328 328 328 328 328 328 328 329 331 332 333 334 335 336 336 336 335 336 335 332 331 330
325 333 331 329 330 328 328 326 325 328 329 326 322 323 325 322 320 321 320 319 321 319 317 318 315 315 319 320 320 318 317 319 319 320 322 324 326 327 328 328 328 328 329 330 331 332 334 334 334 335 335 336 336 335 334 334 334 335 336 336 336 336 337 337 337 336 335 333 332 331 331 331 330 329 329 328 327 327 326 327 327 327 328 328 330 332 333 334 335 336 335 335 335 333 331 330 329
325 331 330 329 330 328 328 327 327 329 329 327 325 324 324 325 322 319 317 316 321 322 322 322 315 313 319 321 317 316 318 319 319 321 322 323 325 326 327 327 327 327 327 327 327 328 330 331 332 333 334 335 336 335 335 335 334 335 335 336 336 336 336 336 336 335 335 333 331 331 332 331 330 329 329 329 328 327 326 325 325 326 327 327 328 330 332 333 335 335 334 335 333 330 330 330 327
325 327 329 330 329 328 328 329 328 326 326 327 326 324 322 325 325 320 318 321 325 324 323 322 318 315 315 316 316 316 318 318 318 319 320 321 323 324 325 325 325 325 325 323 322 324 325 326 327 328 330 331 333 334 334 334 335 335 335 335 337 336 334 335 336 335 335 333 331 331 331 331 330 330 330 330 329 327 326 325 323 325 326 326 328 329 331 332 334 335 334 334 333 330 329 329 326
327 329 328 329 329 327 326 328 328 324 325 327 327 325 323 322 321 319 320 324 325 324 324 322 323 321 316 314 315 316 317 317 318 318 318 319 320 322 323 323 323 323 322 319 317 318 320 321 321 321 324 328 330 331 332 333 333 334 334 335 337 337 334 335 336 335 334 333 332 332 331 330 331 331 331 330 329 326 325 324 322 323 324 324 326 329 330 332 333 334 333 334 333 331 329 328 324
327 329 328 329 328 327 326 327 327 326 325 325 326 325 324 323 321 319 321 324 324 323 324 322 323 324 322 318 315 314 316 317 317 317 317 318 319 319 320 321 321 321 320 317 316 316 316 318 319 317 317 321 326 329 330 331 332 333 333 334 336 336 334 333 334 334 334 334 333 333 332 331 331 331 331 330 330 328 325 324 321 321 322 320 323 327 330 331 332 333 333 333 332 330 328 327 322
325 326 328 328 324 326 328 328 327 326 324 324 325 324 324 324 322 321 321 324 324 323 324 323 322 323 324 322 315 314 316 316 317 317 317 317 318 318 319 320 320 319 317 316 316 315 315 316 317 316 315 316 320 324 327 329 331 332 333 333 334 334 334 334 333 333 334 333 333 333 332 332 331 331 330 330 330 329 325 325 325 323 324 324 325 329 330 331 332 332 332 332 332 330 329 326 320
324 326 328 327 323 324 328 329 328 326 323 324 325 323 324 321 321 323 322 324 323 322 324 325 324 323 322 321 316 314 315 316 316 316 316 316 316 317 318 318 317 316 316 316 316 315 315 315 315 316 314 314 317 320 324 327 330 331 331 332 332 332 334 335 335 334 333 333 333 333 332 331 330 329 328 329 330 328 323 324 328 327 326 327 330 332 332 330 331 331 332 331 331 330 329 326 321
325 327 327 328 325 324 327 328 328 327 323 324 324 322 321 321 323 324 323 322 321 320 322 324 322 319 316 316 316 318 320 317 314 314 316 316 315 316 316 316 316 315 316 315 315 315 314 314 314 314 314 314 315 317 320 324 327 329 330 330 330 331 331 332 333 333 333 333 333 332 332 331 330 329 327 327 329 327 324 323 327 329 326 327 330 334 333 330 331 331 332 331 331 330 329 327 322
325 327 328 328 326 325 327 325 325 325 323 323 322 321 321 323 324 322 322 320 320 321 318 317 315 312 312 315 319 320 317 314 312 313 314 315 315 315 315 315 314 314 314 314 314 314 313 313 313 313 314 314 315 316 319 321 324 327 329 330 330 329 329 329 330 331 332 333 332 331 331 331 330 330 329 328 328 327 325 321 324 329 328 327 329 332 333 331 331 331 331 331 330 329 328 326 321
326 326 327 326 326 326 326 323 324 325 323 321 320 322 322 322 321 319 320 318 320 321 317 316 314 313 313 315 318 317 314 311 308 308 308 309 310 310 310 309 309 309 309 309 309 310 310 311 312 312 313 314 315 317 318 320 322 324 327 329 330 329 329 329 329 330 331 332 332 330 331 330 330 331 330 329 329 328 327 322 322 327 329 328 328 330 332 332 331 330 330 330 330 329 327 324 320
326 326 327 326 326 325 323 321 323 324 322 321 321 323 322 319 317 316 318 317 318 317 316 318 315 316 315 313 314 312 313 308 300 301 302 302 303 303 303 303 303 303 304 305 306 307 308 309 310 311 312 314 315 317 319 321 323 323 325 327 328 329 330 330 330 330 330 331 331 331 330 330 329 329 328 329 330 329 328 326 324 326 328 329 328 330 332 332 331 330 330 329 329 328 326 323 319
320 321 322 324 321 318 317 316 318 316 315 321 321 320 318 315 314 315 318 318 317 316 317 317 315 316 314 314 314 305 304 301 295 298 299 299 300 299 299 299 300 301 301 303 304 305 307 308 309 311 313 314 315 318 320 322 324 324 325 326 327 328 330 330 330 330 329 330 330 329 329 328 328 327 326 328 329 329 329 328 327 326 328 329 328 330 331 331 331 330 330 329 328 328 326 323 319
313 315 316 318 314 312 313 313 315 312 312 320 318 315 314 313 314 314 315 316 314 314 316 315 314 314 312 313 314 304 298 296 295 297 295 295 295 295 295 296 298 300 300 302 304 305 306 307 309 310 312 313 315 316 319 321 323 324 325 326 326 327 328 329 329 329 329 329 329 328 326 325 325 325 324 325 326 327 328 327 326 326 326 328 329 329 330 330 330 330 330 329 328 327 325 322 318
312 314 314 316 314 313 313 312 313 311 313 318 316 315 315 314 315 314 313 313 312 313 313 313 311 311 312 312 312 307 297 293 295 295 293 293 293 294 295 295 296 298 299 301 302 304 305 307 309 310 311 312 313 314 316 318 321 323 325 325 325 326 326 328 328 328 329 328 326 326 325 324 324 324 323 323 323 324 325 326 326 324 324 326 327 328 328 329 329 329 328 327 326 325 323 320 317
314 315 314 314 316 316 314 313 312 310 313 315 315 317 318 316 316 314 313 312 312 313 312 311 311 310 311 311 310 307 297 292 293 293 292 293 293 294 295 295 296 297 298 300 301 302 304 305 307 309 310 312 313 314 315 316 319 321 323 324 325 325 325 324 322 321 324 325 324 323 323 323 323 324 323 323 322 322 323 324 323 323 323 324 325 326 326 327 328 327 326 324 324 323 321 319 317
316 316 314 314 318 317 312 312 312 311 312 312 314 316 316 314 313 313 311 308 308 311 310 309 309 309 310 310 308 306 298 291 291 292 292 293 293 294 295 295 296 297 298 299 300 301 302 304 305 306 308 310 311 313 314 315 318 320 322 323 323 323 322 321 318 318 320 322 323 322 322 322 322 323 323 323 321 321 323 322 321 321 322 322 323 324 324 325 327 326 325 323 322 321 319 318 317
317 317 317 315 316 315 311 312 311 311 310 308 312 315 314 312 312 311 307 305 307 309 310 308 308 309 310 309 306 304 298 291 290 291 292 292 293 294 294 295 296 297 298 298 299 300 301 303 304 305 306 308 309 311 313 314 315 316 318 319 319 320 319 320 320 320 321 321 321 321 320 320 320 321 322 322 321 322 323 322 321 321 321 321 319 320 320 322 324 324 323 321 319 318 317 317 318
316 315 318 316 316 314 312 313 311 310 309 307 311 313 312 312 316 314 306 304 307 309 311 309 308 309 310 308 303 301 298 294 292 291 290 291 291 292 293 294 295 295 296 297 298 299 301 302 303 304 305 306 307 309 311 312 313 314 315 317 318 318 319 319 320 319 319 319 319 319 319 318 318 319 320 321 321 322 322 321 321 321 321 319 317 317 317 317 319 319 320 318 317 316 315 316 316
316 313 315 314 313 312 311 313 311 308 307 308 310 310 309 310 313 313 307 305 306 307 308 309 308 309 309 305 300 299 298 298 296 291 289 290 290 291 291 292 293 294 295 296 297 298 299 300 301 302 303 305 306 307 308 310 312 315 316 317 318 318 318 318 318 317 317 316 317 317 317 316 316 316 317 318 318 320 321 320 320 319 319 319 317 316 316 316 314 314 315 316 316 315 314 315 315
316 314 313 313 311 311 310 311 310 307 307 309 309 308 307 307 307 307 306 305 305 304 305 305 305 306 307 304 301 299 297 298 295 289 288 289 289 290 290 291 292 293 294 294 295 296 297 299 300 301 302 303 305 306 307 309 311 314 315 316 316 316 316 316 316 315 314 314 314 314 314 314 314 314 314 315 316 317 317 317 318 317 316 318 317 315 315 316 315 313 312 313 314 314 314 315 314
313 312 311 312 309 308 308 308 309 307 307 308 307 307 306 306 306 306 306 305 305 305 304 303 303 304 304 303 302 298 296 296 291 287 288 288 288 289 289 290 291 292 293 293 294 295 297 298 299 300 302 303 304 305 307 309 310 312 314 314 314 314 313 313 313 312 311 311 311 311 311 311 311 311 312 313 314 314 314 313 314 315 316 317 317 315 314 314 314 313 312 312 312 312 313 313 313
309 309 309 309 308 307 307 307 308 307 307 308 307 306 306 306 306 306 306 306 306 306 305 304 303 302 302 302 302 299 296 293 288 286 287 286 287 288 288 289 289 290 291 292 293 294 295 297 298 300 301 302 304 305 305 307 309 311 313 313 312 310 310 310 309 308 308 307 307 308 308 308 309 309 309 310 311 311 311 311 311 311 312 314 315 315 314 312 312 312 311 311 310 310 311 312 313
310 310 310 310 309 308 307 307 308 307 307 308 308 308 307 306 306 306 306 306 306 306 306 305 303 302 302 302 302 299 296 291 287 286 285 285 286 286 287 287 288 288 289 290 291 292 294 295 297 299 300 302 302 303 304 305 307 310 310 310 309 307 306 306 305 303 303 303 304 304 304 304 305 306 306 307 307 308 308 309 309 309 309 309 311 313 312 311 310 310 310 310 309 309 308 310 312
311 310 310 310 309 309 309 309 309 306 307 310 309 309 307 306 306 306 305 305 304 304 304 304 303 303 302 302 302 300 296 292 289 286 284 284 284 285 285 286 286 286 286 288 289 290 292 294 296 297 299 300 301 301 303 304 306 308 308 307 306 305 303 301 300 299 300 301 301 301 301 301 301 302 303 303 304 305 305 306 306 307 307 307 307 308 309 309 309 308 309 309 308 308 306 306 309
310 310 310 310 310 310 311 312 311 307 307 309 308 306 305 305 305 304 304 304 303 304 305 305 304 303 302 301 300 299 297 293 289 287 284 282 283 283 283 283 284 284 285 286 287 289 290 292 294 295 297 299 300 301 302 303 304 306 306 305 303 302 300 298 298 298 298 298 298 298 298 298 298 299 300 300 301 302 303 304 304 304 305 305 304 305 306 306 307 307 307 308 307 306 306 305 305
309 309 309 310 310 310 310 310 310 307 307 307 306 306 306 305 305 306 306 304 303 304 304 304 304 302 300 298 297 295 293 291 288 287 284 281 280 281 281 282 282 283 283 283 284 285 287 289 291 293 295 297 298 300 301 301 302 303 303 302 301 300 298 298 297 296 295 295 295 295 295 296 296 296 296 297 298 299 300 301 302 302 302 302 302 302 303 304 304 305 305 306 305 305 305 304 304
310 309 309 310 310 310 309 309 308 309 309 307 306 308 307 306 306 308 309 306 304 303 303 305 304 301 298 297 295 292 290 288 286 285 283 280 279 279 280 281 281 281 281 281 282 283 285 288 289 291 293 295 297 299 300 300 301 301 301 300 299 297 294 292 291 290 290 291 291 291 292 293 294 294 294 294 294 295 296 298 299 299 300 300 300 300 300 301 302 303 303 303 303 304 303 302 303
311 311 312 310 309 309 309 308 308 311 311 305 305 308 307 305 304 306 309 308 307 305 303 305 303 300 297 295 292 289 287 285 284 283 281 280 279 279 279 279 280 280 280 281 282 283 285 286 288 289 291 293 294 296 298 299 299 299 298 297 295 292 288 286 286 287 288 288 288 289 290 291 291 292 292 292 292 292 293 294 295 296 296 296 297 297 297 298 299 299 300 301 301 301 302 301 301
312 311 313 313 310 310 309 308 308 309 308 304 304 306 307 306 304 306 307 305 305 305 305 305 303 300 296 292 289 287 286 284 283 282 280 279 278 278 278 278 279 279 280 281 282 282 284 285 286 288 289 290 291 292 295 297 296 295 295 293 291 288 286 285 285 286 287 287 288 288 288 288 288 289 289 290 290 290 290 291 292 293 293 293 293 294 294 295 296 296 297 298 299 299 300 300 300
311 307 309 312 310 310 308 307 308 306 305 305 305 305 307 307 304 306 306 303 305 308 308 307 305 301 296 291 288 286 284 283 282 281 279 278 278 277 278 278 278 279 280 280 281 281 283 284 285 286 287 288 288 289 292 293 293 292 291 290 287 285 284 284 284 285 286 286 286 286 287 287 287 287 288 288 289 289 289 289 290 290 290 290 290 291 291 292 293 294 295 295 296 297 297 298 298
308 304 306 308 306 306 305 305 307 306 306 306 306 305 306 307 303 305 306 305 308 310 309 308 304 300 295 291 288 285 283 281 280 279 278 278 277 277 278 278 278 279 279 280 280 281 282 283 284 285 286 285 285 286 288 289 289 289 288 286 284 283 283 284 284 284 284 284 284 284 285 285 285 286 286 287 288 288 288 288 289 289 288 288 289 289 289 290 290 291 292 293 293 294 294 295 295
304 305 306 306 305 304 305 305 305 307 307 306 307 306 305 307 305 305 306 306 307 308 308 308 306 301 295 290 287 284 282 281 279 278 278 277 277 277 278 278 278 278 279 279 279 280 281 282 283 284 283 282 283 284 285 286 286 286 285 284 283 282 282 283 283 282 281 282 282 281 281 282 283 284 284 285 286 286 287 288 288 288 288 287 287 288 288 288 289 289 290 291 291 292 292 292 292
303 306 306 306 306 305 307 306 305 307 308 306 306 305 304 306 305 304 307 306 305 306 308 309 311 308 297 289 286 283 281 280 279 278 278 277 277 277 277 277 277 278 278 278 278 278 279 280 280 281 281 280 281 282 283 283 283 283 282 282 282 281 281 280 279 278 278 279 279 279 279 280 281 282 282 283 284 285 286 286 286 286 286 286 286 287 287 287 288 288 289 289 289 290 290 291 291
303 305 305 307 309 309 310 307 306 308 306 303 303 303 303 304 303 303 305 305 305 305 305 304 305 304 296 289 285 283 281 280 279 278 278 277 277 277 276 276 276 276 276 277 277 277 278 278 278 278 278 278 279 280 281 281 281 280 280 280 280 280 279 278 277 277 276 276 276 277 277 277 278 279 279 280 281 283 284 284 284 284 284 285 286 286 286 286 287 287 287 288 288 288 288 289 289
303 305 307 310 311 311 308 305 306 305 304 303 301 301 303 303 302 304 304 302 299 296 295 293 292 293 291 288 285 282 281 279 279 278 277 277 277 276 275 275 275 275 275 275 275 276 276 276 276 276 276 276 276 277 278 278 278 277 277 277 277 277 277 276 275 275 275 275 275 274 274 274 275 276 277 279 280 281 282 282 282 283 283 284 284 285 285 285 286 286 286 286 286 287 287 287 288
304 305 306 309 311 310 304 303 305 303 303 303 300 300 305 304 304 305 301 296 292 289 289 288 287 287 288 286 283 281 280 279 278 277 276 276 276 275 275 274 274 274 274 274 274 274 274 274 274 274 274 274 274 275 275 275 275 275 276 276 276 275 275 274 274 274 273 273 273 274 274 274 275 276 277 278 279 281 280 280 281 282 282 283 283 284 284 284 284 285 285 285 285 285 286 286 286
304 304 305 307 308 308 305 304 305 303 304 304 301 303 305 303 303 301 295 294 294 291 288 289 288 286 285 284 282 280 279 278 277 276 276 276 275 275 274 274 274 273 273 273 273 273 273 273 273 273 273 273 273 273 273 273 273 274 274 274 274 274 273 273 272 272 272 272 272 273 273 274 274 275 276 278 279 279 280 280 280 280 281 282 282 282 282 283 283 283 283 283 283 283 284 285 284
303 304 307 307 305 306 307 306 305 304 305 305 303 304 303 301 302 300 297 299 299 296 292 291 288 285 284 283 281 280 279 277 277 276 275 275 275 274 274 273 273 273 272 272 272 272 272 272 272 272 272 271 271 271 271 272 272 272 272 272 272 272 272 271 271 271 271 271 272 272 272 273 273 273 274 276 276 277 278 279 279 279 279 280 281 281 281 281 281 281 281 281 281 282 282 283 283
304 306 306 305 304 305 306 306 306 305 305 305 303 303 303 302 302 302 303 304 303 300 296 292 287 285 285 283 281 279 278 277 276 275 275 275 274 274 273 273 273 272 272 272 272 271 271 271 271 271 271 270 270 270 270 270 270 270 270 270 270 270 270 269 270 270 270 271 270 270 270 271 271 272 272 273 274 275 276 276 277 277 277 278 279 280 280 280 281 280 280 280 280 280 281 281 281
302 304 303 303 305 305 304 305 305 305 305 304 303 303 303 302 302 302 303 304 304 301 297 295 292 287 285 283 281 279 278 277 276 275 275 274 274 274 273 273 272 272 272 272 271 271 271 271 270 270 270 269 269 269 269 269 269 268 268 268 269 269 268 268 269 269 270 270 269 269 269 269 270 270 271 271 272 273 273 274 274 275 275 276 276 277 278 278 279 279 279 279 279 279 279 279 279
301 302 303 303 304 304 304 306 305 304 305 304 305 304 303 302 303 302 301 303 303 301 299 300 296 289 285 284 281 279 278 277 276 275 275 274 274 274 273 273 273 272 272 272 271 271 271 270 270 270 269 269 269 268 268 268 268 267 267 267 268 268 268 268 268 268 269 268 268 269 269 269 269 269 269 270 270 271 271 271 272 273 273 273 274 274 275 276 276 276 276 277 277 277 277 277 277
302 304 305 304 304 304 304 305 305 304 304 305 305 305 304 302 302 301 301 303 303 300 300 301 296 289 286 284 282 280 278 277 276 275 275 274 274 274 273 273 273 273 272 272 271 271 271 270 270 269 269 269 268 268 267 267 267 267 266 266 266 267 267 267 267 267 267 267 267 268 268 268 268 268 268 269 269 269 269 270 270 271 271 271 271 272 273 274 274 273 273 274 275 276 275 275 275
303 304 305 304 305 304 302 303 304 304 303 304 304 303 303 301 300 300 301 302 301 299 299 299 296 290 286 283 281 280 278 277 276 275 275 275 274 274 274 273 273 272 272 272 271 271 270 270 270 269 269 268 268 268 267 267 266 266 266 265 265 265 266 266 266 266 266 266 266 266 267 267 267 267 267 267 268 268 268 269 269 269 269 269 270 270 271 271 271 271 271 272 273 273 273 273 274
Wind_Speed
5 4 4 2 2 2 2 2 2 1 2 1 2 2 4 4 2 2 3 2 1 2 2 0 2 3 2 3 6 6 4 4 4 4 3 4 2 8 10 7 3 1 3 6 8 10 13 16 17 19 18 17 18 18 17 18 18 18 19 18 18 17 17 16 14 14 13 12 11 11 11 12 12 12 13 13 13 13 12 10 12 13 14 14 13 12 12 12 12 12 11 11 11 10 10 10 10
4 3 1 0 1 3 1 2 2 1 2 3 3 3 3 1 1 5 6 4 5 2 2 1 1 1 1 2 2 1 2 4 3 3 3 2 1 8 9 7 4 1 3 5 7 10 12 15 17 18 18 17 17 17 17 18 18 19 19 18 18 18 17 17 16 15 14 13 12 10 10 11 11 11 11 11 11 12 11 11 12 13 14 14 14 13 13 13 13 12 12 12 12 11 12 11 12
3 1 1 3 2 2 1 3 1 2 3 5 4 3 1 1 5 7 8 7 6 2 3 2 1 2 3 1 1 2 4 4 2 1 3 1 2 7 9 6 4 2 3 5 7 9 11 13 16 17 18 17 16 16 17 18 19 19 19 19 19 18 17 17 16 15 15 14 13 12 11 11 10 10 10 10 10 10 11 12 13 14 14 13 14 14 14 14 14 13 13 13 13 12 13 12 13
2 3 2 4 2 3 3 2 1 4 4 4 3 4 3 5 7 6 7 7 7 3 2 1 0 2 4 1 2 1 4 3 2 3 1 3 4 5 8 6 5 5 5 6 6 8 9 12 14 16 17 17 16 16 17 17 19 19 19 19 19 18 18 17 17 16 15 14 14 13 13 12 11 10 11 11 11 11 12 12 13 14 15 14 15 15 15 15 14 14 14 14 13 13 13 13 13
1 2 2 3 2 1 3 1 2 3 4 4 2 4 4 6 5 5 7 7 5 3 2 2 1 2 2 2 2 1 4 2 3 5 2 4 5 2 6 6 7 6 6 6 7 7 8 10 13 15 16 17 16 16 17 18 18 19 20 19 19 19 18 18 17 16 16 15 14 14 13 12 11 11 11 11 11 12 12 13 14 15 16 15 16 16 16 16 15 15 15 15 15 15 15 14 14
1 1 1 2 2 1 3 1 2 3 5 5 2 4 4 5 4 4 7 8 3 5 4 1 1 1 0 2 1 2 3 0 1 4 3 5 6 3 6 7 7 7 6 6 7 7 8 10 12 13 15 16 16 16 17 18 17 18 19 20 20 19 19 18 18 18 17 16 16 15 14 13 13 12 11 12 12 13 14 15 15 16 16 16 16 17 17 17 16 16 15 16 17 16 16 16 16
2 1 2 2 1 2 3 3 4 4 4 5 4 4 3 3 4 2 5 6 3 1 2 2 1 2 1 2 1 3 2 2 1 2 4 6 7 7 8 8 8 8 7 7 7 7 8 9 11 12 14 15 16 16 17 17 17 17 18 19 19 20 20 20 19 19 18 18 17 16 14 13 13 13 12 12 13 14 15 16 16 17 17 17 17 18 18 18 17 18 17 18 19 19 18 17 17
3 0 1 3 1 2 2 2 3 4 3 3 3 5 4 3 3 1 3 1 2 3 1 2 1 1 3 2 1 4 3 6 4 4 7 9 10 9 9 9 9 9 8 8 7 8 9 10 11 12 13 15 16 16 17 17 17 17 17 18 18 19 20 20 19 19 19 18 17 16 15 14 14 14 13 13 13 14 16 17 17 17 18 17 17 17 18 19 18 19 19 20 21 21 20 18 18
4 2 0 2 2 1 1 2 3 3 4 4 3 5 6 5 2 2 3 2 3 3 3 3 0 2 4 2 3 5 3 7 6 7 10 10 11 10 10 10 9 9 9 8 7 8 10 10 11 12 13 14 15 16 17 17 17 17 17 17 17 18 19 19 19 18 17 17 16 16 15 15 15 15 15 15 15 15 16 17 18 18 18 18 17 17 19 19 18 19 21 22 22 22 21 20 20
3 3 1 1 2 0 3 3 3 3 4 4 4 5 6 5 3 2 3 4 3 3 6 2 2 4 2 1 3 2 2 8 9 9 12 12 13 12 11 11 10 9 9 9 8 8 10 11 11 11 13 14 15 16 18 18 18 18 17 17 17 18 19 18 18 18 17 17 16 16 16 16 16 16 16 17 18 17 17 17 18 19 18 18 18 17 19 19 19 20 22 23 24 23 22 21 21
2 3 2 2 2 1 3 3 3 4 5 5 4 6 5 3 3 3 3 4 2 2 6 2 0 3 1 2 3 2 3 6 7 6 8 13 14 13 12 12 11 10 10 9 8 9 10 11 11 11 12 13 14 16 18 19 19 19 18 18 18 18 19 18 18 19 19 19 17 17 17 16 17 17 17 17 18 18 19 19 18 19 19 20 19 18 19 19 20 20 23 24 25 25 23 21 22
2 2 3 2 2 3 3 3 4 4 6 5 4 4 2 0 1 2 4 4 4 4 4 1 0 1 1 3 3 5 5 5 7 5 5 9 11 11 11 10 11 10 9 9 10 10 11 12 12 12 12 13 14 15 17 19 20 20 19 19 19 20 21 19 19 20 20 20 19 19 19 18 17 17 18 18 18 19 19 20 20 19 19 20 20 19 19 19 20 21 24 25 25 26 23 22 22
3 2 4 2 2 3 2 2 3 3 5 3 3 3 1 1 1 3 3 3 5 3 2 3 2 0 1 3 4 6 8 13 12 7 7 7 8 8 7 7 8 9 8 9 10 10 11 12 12 12 12 13 14 15 17 19 20 20 21 20 20 22 22 21 22 22 21 21 21 20 20 19 18 17 18 18 18 19 19 20 21 20 20 20 21 21 20 20 21 21 23 26 26 25 23 24 23
2 2 4 2 1 2 3 1 2 2 4 4 3 3 2 1 2 3 3 3 5 2 3 5 2 1 2 2 5 4 9 19 14 7 8 8 8 8 7 6 6 6 5 6 7 9 11 12 12 12 12 13 14 15 16 18 20 21 22 22 20 22 23 23 25 24 23 23 22 21 21 21 19 18 18 18 19 19 19 19 20 21 21 20 21 22 21 20 21 21 22 25 27 25 24 24 24
3 2 4 2 0 0 3 2 3 3 4 4 2 2 2 0 2 1 3 1 6 4 4 4 3 2 2 1 3 5 11 18 12 4 7 8 8 7 7 6 6 6 5 5 5 7 10 12 13 14 14 14 14 15 16 18 20 21 23 23 22 22 22 22 25 25 23 23 22 22 23 22 21 20 19 19 19 20 20 19 19 20 22 22 22 23 22 21 20 23 23 24 25 25 26 25 24
3 3 3 1 2 1 3 3 3 2 4 4 3 1 1 2 2 1 2 3 4 3 3 3 1 0 3 4 5 6 9 12 8 3 3 4 6 7 7 7 7 6 6 7 6 7 8 11 12 13 15 16 16 16 17 18 19 21 23 25 24 22 22 22 23 24 24 25 24 23 25 23 22 22 21 21 20 20 20 20 21 21 21 22 23 23 23 21 20 23 22 24 24 20 25 27 24
3 3 2 2 3 3 4 3 4 3 4 4 3 1 3 4 3 2 2 3 3 5 3 4 2 1 5 4 4 4 7 7 5 3 2 5 7 9 9 9 10 9 8 9 11 11 11 11 12 13 14 15 17 18 19 19 20 21 23 24 24 22 21 21 22 24 26 28 26 26 26 24 24 23 23 23 21 20 19 20 21 22 22 22 23 23 24 22 21 23 22 25 25 17 23 27 24
2 2 2 3 3 3 4 5 5 3 3 3 2 1 2 4 4 1 2 1 2 5 6 3 2 3 5 5 3 4 6 5 5 3 4 6 8 10 11 11 11 12 11 12 13 14 15 16 17 17 17 16 17 18 20 21 21 21 22 23 24 22 21 23 23 23 26 27 26 27 27 26 26 25 25 24 22 21 21 20 21 22 22 21 23 23 24 23 21 23 22 24 26 21 24 26 26
2 3 2 4 4 3 4 5 4 3 4 4 3 2 2 4 3 1 3 5 4 5 8 4 5 6 6 7 7 5 5 6 5 4 4 5 6 8 11 12 12 12 12 13 13 14 16 18 19 20 20 20 19 19 20 21 22 22 21 22 23 22 21 23 23 22 24 25 26 27 27 26 28 27 26 26 25 23 22 22 21 22 22 21 22 23 23 23 22 22 23 23 25 24 26 27 28
2 3 2 5 4 4 4 4 5 5 4 5 6 3 2 4 3 0 2 6 5 5 7 5 7 8 6 8 9 8 7 6 5 5 6 8 9 10 11 12 13 13 12 14 15 15 17 19 20 20 20 21 22 22 21 22 22 22 21 21 22 22 22 24 24 25 25 24 26 27 27 27 28 28 27 27 26 24 24 23 23 23 23 23 24 25 25 23 22 21 22 24 25 26 27 27 29
1 2 4 4 3 2 5 6 6 5 2 3 5 4 6 5 1 2 2 6 9 6 6 6 9 10 9 8 6 5 5 6 7 9 9 11 14 13 13 12 12 12 13 15 17 18 19 20 21 21 21 22 22 23 23 23 23 23 23 22 22 23 24 26 27 27 26 25 27 28 28 28 28 29 28 27 26 25 25 24 24 23 23 24 25 27 26 24 23 23 24 26 27 28 29 29 31
1 3 4 4 3 2 6 5 5 4 2 2 3 4 6 3 2 3 4 6 8 6 6 8 9 10 9 9 7 5 4 6 8 9 11 14 16 16 14 12 13 14 16 18 20 22 21 20 21 22 23 23 23 24 24 24 24 24 25 24 23 24 25 27 28 28 27 26 28 29 28 28 29 29 28 28 28 28 27 26 25 24 24 23 24 26 26 26 26 26 28 30 29 30 30 31 32
2 3 2 3 4 4 5 2 4 2 1 4 3 3 3 4 7 5 7 10 9 8 8 7 9 10 10 8 7 6 6 6 7 10 13 14 16 16 15 14 15 18 20 21 22 24 22 20 21 22 24 24 23 24 25 24 24 25 26 25 25 25 25 27 28 29 29 29 30 30 29 29 29 28 29 30 31 30 30 29 27 26 26 25 25 28 27 26 28 29 30 31 30 31 32 32 33
2 3 3 3 4 5 5 3 5 2 4 6 2 4 4 6 8 4 8 11 9 12 9 7 9 11 9 6 6 8 7 8 10 11 11 12 13 14 14 14 15 17 18 20 20 21 22 22 22 22 23 23 23 23 25 26 26 25 26 26 26 26 25 27 27 27 29 31 32 33 32 32 30 29 30 31 32 31 31 30 30 29 29 28 27 29 29 29 30 31 32 32 32 32 34 34 35
3 4 4 2 3 5 4 4 6 5 5 4 4 7 8 10 6 8 15 13 10 11 8 8 8 9 8 7 8 8 7 9 11 10 8 8 9 10 10 10 12 13 14 15 16 17 18 20 21 21 21 22 23 23 24 26 27 26 26 27 27 26 26 27 27 27 28 30 32 34 34 33 32 33 33 32 34 35 33 31 31 32 32 30 29 30 32 32 31 33 34 34 34 34 35 36 36
3 3 3 3 4 5 5 5 5 5 4 1 4 9 10 8 4 12 19 12 8 7 7 9 7 9 9 8 8 6 5 7 8 9 7 5 5 6 6 7 7 8 10 11 12 13 14 16 17 18 19 20 21 22 23 25 25 26 26 26 26 26 26 26 26 26 27 29 31 32 33 33 33 32 32 35 36 35 34 33 34 35 34 32 31 33 35 34 32 33 36 35 36 36 37 38 38
2 2 4 4 4 4 3 5 5 4 3 3 5 10 11 3 2 11 11 1 1 1 6 9 6 9 9 8 7 3 2 3 6 7 7 5 5 7 7 7 7 7 8 8 9 10 10 11 12 13 14 15 17 18 20 22 23 24 24 25 25 24 25 25 25 26 26 28 30 31 31 31 31 30 30 34 35 34 34 34 34 34 35 35 34 35 36 36 34 35 36 36 38 38 38 39 40
1 2 5 5 5 4 4 5 5 2 3 7 7 9 12 2 5 14 12 3 4 6 10 11 8 10 8 8 7 2 0 2 4 3 4 6 6 8 7 8 9 7 7 8 8 8 8 9 9 10 10 11 12 13 15 18 21 23 22 22 22 22 23 23 24 25 26 28 29 29 29 26 27 29 28 28 29 30 33 31 27 26 29 33 36 36 36 35 36 36 36 38 39 39 40 41 41
2 4 5 9 9 7 5 5 4 3 4 6 5 7 13 9 10 17 15 10 9 8 11 13 12 12 8 7 6 4 2 2 2 2 3 3 4 6 6 7 9 8 7 7 8 7 8 8 8 8 8 9 8 9 11 13 17 20 21 20 19 19 19 19 21 23 26 27 27 26 26 24 25 27 26 25 25 25 29 28 24 22 22 27 33 35 35 35 36 36 37 38 39 39 40 40 39
4 4 3 7 9 8 7 5 2 2 4 6 5 7 13 14 13 14 12 10 11 10 10 12 12 10 6 5 5 5 4 3 2 2 3 3 4 5 5 6 8 8 8 7 8 7 7 8 8 8 8 9 8 8 9 9 11 14 18 18 17 17 16 16 17 17 21 23 23 24 24 24 24 24 24 25 24 23 23 21 20 23 24 24 28 31 33 35 35 36 37 38 38 39 40 40 40
4 3 2 3 3 6 5 5 3 2 3 6 6 7 11 13 13 12 9 6 6 8 10 11 10 9 6 5 5 6 4 2 2 2 3 4 4 5 5 7 7 8 9 9 9 8 8 8 8 8 8 8 8 8 8 7 6 6 11 13 14 15 14 15 15 14 17 19 19 21 22 22 22 23 23 23 21 18 17 15 17 20 22 23 26 29 32 34 35 36 38 38 38 39 39 40 40
3 2 4 1 3 5 6 5 3 4 5 4 7 6 8 11 13 12 7 5 2 7 10 10 10 9 6 5 5 6 5 3 4 3 3 3 4 5 5 7 8 8 9 10 10 9 9 8 8 9 9 9 9 9 9 8 7 6 8 10 11 12 11 11 13 13 15 15 15 16 18 19 19 20 21 22 19 16 16 15 15 17 19 19 21 24 27 31 35 36 38 37 35 36 36 37 38
2 2 5 4 4 5 6 7 4 6 4 1 7 6 5 7 10 10 4 2 2 5 9 9 9 8 6 6 5 5 5 5 6 5 3 3 3 4 4 5 6 7 8 9 11 11 10 9 9 10 10 10 10 10 10 9 9 8 8 9 9 8 7 7 8 10 10 10 10 11 13 14 14 15 16 19 19 17 17 14 13 15 18 18 19 20 21 25 29 32 35 34 31 30 32 32 31
3 2 4 5 5 5 5 6 5 1 2 4 7 8 9 9 9 11 8 4 3 5 9 10 9 7 6 5 5 6 5 6 6 5 3 3 3 3 3 4 5 5 7 8 9 10 10 10 10 10 9 10 10 10 9 8 7 6 5 4 4 3 3 4 5 6 5 5 5 6 8 9 10 10 10 12 13 15 16 15 14 15 18 19 18 19 20 22 22 22 25 30 31 29 29 30 29
5 4 3 4 4 6 7 7 5 2 1 5 6 9 13 13 11 12 13 10 9 10 11 11 11 9 6 6 6 7 7 8 7 4 3 3 2 3 3 3 4 5 6 7 8 8 9 9 8 9 9 8 8 8 8 5 3 2 1 1 1 3 3 3 3 2 1 2 3 3 5 5 6 6 6 7 9 11 13 13 14 16 20 20 18 18 20 23 24 20 18 21 26 26 26 30 31
6 4 3 5 4 6 8 8 6 1 3 8 9 13 15 14 14 13 13 12 11 12 12 10 9 9 8 7 7 8 9 9 6 3 2 1 2 2 3 3 3 4 6 6 6 7 8 7 7 7 8 8 7 7 6 4 2 0 1 1 3 5 5 4 4 3 3 3 3 3 3 4 4 5 5 6 7 8 10 11 12 13 17 18 18 20 20 22 24 22 20 19 21 22 24 27 28
3 2 3 6 6 9 9 7 7 3 3 8 11 16 17 15 15 13 12 12 12 14 14 12 10 11 10 9 9 9 8 5 4 4 1 1 2 3 3 4 3 4 5 6 6 7 7 7 7 7 7 7 6 6 5 3 1 1 1 2 4 6 6 6 7 7 6 6 6 5 5 6 6 6 6 7 7 8 9 10 11 12 12 13 17 20 20 19 21 20 19 19 19 19 21 26 28
3 4 6 6 7 11 9 8 9 4 4 7 10 15 17 15 15 13 11 12 14 15 16 15 13 12 11 10 10 8 5 2 4 4 3 3 4 5 5 6 6 5 7 8 7 7 7 7 7 7 6 6 6 6 5 3 1 1 2 5 7 8 9 9 10 10 10 9 8 8 8 8 7 7 7 8 8 9 10 11 11 12 13 12 12 15 15 15 18 18 18 18 18 17 15 21 30
5 4 4 6 6 8 8 8 9 3 4 6 9 14 15 14 15 14 12 14 14 15 15 14 12 12 12 10 9 8 6 4 4 3 4 5 6 6 6 8 8 8 8 8 8 8 8 8 8 7 6 5 5 5 5 3 2 1 3 7 9 11 12 12 13 12 11 10 10 10 10 10 10 10 9 9 9 10 10 11 12 12 13 14 12 10 9 10 14 16 17 17 17 17 14 14 24
5 4 3 7 6 5 5 5 4 2 4 6 9 12 13 13 13 13 13 13 12 11 10 9 8 11 12 8 6 7 8 6 4 3 5 6 8 8 9 10 9 9 9 9 10 9 10 10 9 8 7 6 5 4 4 4 3 3 6 9 11 12 14 13 13 13 12 12 12 12 12 12 13 12 12 11 10 10 11 11 11 12 12 12 12 11 8 8 10 13 15 16 15 16 14 13 15
5 6 6 9 9 8 8 6 5 4 5 6 8 10 9 9 8 9 7 5 7 8 6 8 10 10 7 5 3 1 3 5 5 3 3 5 8 9 9 9 9 10 11 11 12 11 11 10 9 9 8 7 6 5 6 8 8 9 10 12 12 13 13 11 12 14 15 15 15 15 15 14 14 14 14 13 12 12 11 11 11 11 11 11 10 9 8 7 8 10 12 14 15 15 15 13 15
4 6 11 14 12 10 11 9 7 6 5 4 2 6 6 3 3 6 5 2 5 4 4 11 13 8 3 2 2 3 3 3 4 3 3 5 7 8 9 9 9 10 11 11 11 10 10 10 9 9 8 8 8 8 8 9 10 12 12 12 11 12 13 13 14 16 18 20 19 18 17 16 16 16 16 16 15 15 13 12 12 11 11 10 9 8 7 6 6 7 9 12 14 15 14 12 13
5 5 11 13 11 10 10 9 4 2 5 2 4 1 7 7 5 6 6 5 6 3 5 11 11 6 1 1 2 3 3 4 4 3 4 5 6 7 8 9 9 9 9 9 9 10 10 10 10 10 10 10 10 10 9 9 11 12 12 13 13 15 16 17 17 19 21 22 22 21 20 20 18 18 18 18 18 18 17 15 14 13 12 11 9 8 7 5 4 5 6 8 10 13 14 12 9
5 4 7 9 8 9 8 6 4 3 5 3 4 3 6 11 7 3 3 3 4 6 8 10 10 6 1 2 3 3 3 3 3 3 3 4 5 6 7 8 8 7 7 7 9 10 11 11 11 12 12 12 12 12 11 12 13 14 16 17 18 20 21 20 20 22 23 23 23 24 24 24 22 21 20 20 20 20 20 19 18 16 15 14 13 11 10 7 5 3 3 4 6 8 10 10 8
6 3 5 5 6 6 5 5 5 2 4 5 3 5 3 9 6 0 2 1 3 7 9 10 10 6 2 4 3 3 3 3 3 3 3 4 5 6 6 7 7 6 6 7 8 10 11 12 12 12 14 15 15 15 15 15 17 19 20 22 23 24 24 23 23 24 24 24 25 26 26 26 25 25 24 22 21 21 21 21 21 20 19 17 16 15 14 11 9 6 4 2 1 3 5 6 7
4 4 4 2 2 1 1 3 3 2 4 7 4 5 3 8 6 2 2 1 4 7 7 7 7 4 3 5 4 4 4 3 3 4 4 4 5 6 6 7 7 7 7 7 8 9 11 12 13 13 15 16 17 17 18 19 20 22 23 24 25 24 23 23 24 24 25 26 27 28 27 28 27 26 26 24 23 23 22 22 21 21 20 19 18 17 16 15 14 12 9 7 5 4 3 2 5
2 4 2 3 2 2 2 0 1 2 5 6 6 10 7 6 4 2 1 2 4 4 5 5 5 3 3 5 5 5 5 4 4 4 4 6 7 7 7 8 8 8 7 8 10 11 12 12 13 14 15 17 18 19 20 21 22 24 24 24 24 23 22 23 24 24 25 26 27 28 28 29 28 28 28 27 26 25 24 23 22 20 19 19 20 19 18 17 16 14 13 11 9 8 8 7 7
2 2 2 3 3 2 4 3 3 1 5 4 3 8 8 6 4 1 4 5 5 4 4 6 6 5 4 5 5 5 5 5 4 3 4 5 6 7 9 10 10 9 9 10 11 11 12 13 14 15 16 17 18 19 21 22 23 24 24 23 23 23 22 23 24 24 25 26 26 26 28 29 29 29 29 29 28 27 26 25 22 21 20 20 20 20 19 17 16 15 14 14 14 12 10 8 9
3 2 2 2 3 3 3 3 0 3 6 3 2 2 3 8 7 6 9 8 4 6 5 5 6 6 5 5 5 5 4 4 4 4 3 4 5 8 10 11 12 12 11 11 11 12 13 14 14 16 16 17 19 20 21 22 24 24 24 24 24 24 24 25 25 25 25 26 26 26 27 28 29 30 30 31 30 28 27 26 24 24 23 21 20 20 20 19 17 17 17 16 16 15 13 12 11
4 3 3 2 1 2 4 4 2 4 6 4 2 1 2 6 5 7 9 6 4 4 5 5 6 7 6 3 3 3 4 4 4 5 5 5 7 9 10 11 13 14 13 12 12 12 14 14 15 16 17 17 19 21 22 23 24 24 25 25 26 26 26 27 27 27 27 26 27 28 28 28 29 30 30 30 29 27 27 27 25 24 23 22 21 21 21 21 20 19 20 20 19 16 15 14 13
4 4 3 3 3 2 4 4 4 6 6 5 1 2 2 3 2 5 5 4 4 3 4 4 4 5 3 3 5 6 6 6 6 6 6 7 9 10 11 12 13 14 15 14 13 13 14 14 15 15 16 17 19 21 23 24 25 25 26 27 28 29 29 29 28 28 28 27 28 30 30 30 30 30 29 28 26 26 27 26 25 25 24 23 23 22 22 22 21 21 21 21 21 19 17 17 16
1 2 3 1 3 4 3 5 7 6 7 6 2 2 5 3 1 1 1 4 5 2 3 4 5 6 6 6 6 5 5 5 5 5 6 8 10 11 12 12 13 14 15 16 15 15 15 15 15 16 16 17 18 21 22 24 26 27 28 28 29 30 30 30 29 28 28 29 29 31 31 30 30 29 28 26 26 25 25 26 26 25 24 24 23 23 23 23 23 23 23 23 23 22 20 20 20
1 2 2 3 3 4 1 5 6 4 6 7 5 6 7 4 3 2 3 5 5 3 3 3 4 5 6 5 4 4 4 5 5 5 6 7 10 11 12 13 13 13 14 15 15 15 15 15 16 16 17 17 18 19 21 23 26 27 28 28 29 30 30 29 29 28 29 30 30 30 30 29 29 29 27 26 25 25 25 25 25 25 25 24 24 23 23 24 24 25 25 25 25 24 23 22 22
3 2 4 2 1 2 2 2 3 4 5 6 7 11 11 8 6 3 4 5 5 5 3 1 3 4 3 4 4 5 5 6 6 7 7 8 9 10 11 12 13 14 14 15 15 15 16 17 17 18 19 19 19 20 21 22 25 27 27 28 29 30 30 30 29 30 30 30 30 29 29 29 29 28 27 26 25 25 25 24 25 25 25 24 24 23 23 23 23 25 25 25 25 25 25 24 23
3 3 2 1 0 2 1 0 2 6 7 5 8 12 11 8 6 2 3 4 5 4 2 1 1 4 4 5 6 7 7 7 7 7 6 8 10 11 12 13 13 13 14 14 15 15 17 17 18 19 20 21 21 22 24 25 27 29 29 29 31 32 31 31 31 31 31 31 30 29 29 29 28 28 27 26 25 25 25 25 24 24 24 24 24 23 23 23 23 23 24 24 24 24 25 25 24
2 1 1 2 2 3 1 1 2 5 7 7 8 10 8 7 4 3 4 5 5 3 2 4 5 6 6 6 7 7 7 6 6 7 6 8 11 12 13 13 13 14 14 14 15 15 16 17 17 19 20 23 25 26 28 29 30 31 32 33 34 33 33 33 33 33 32 32 30 29 29 28 28 27 27 27 26 25 25 24 24 24 24 24 24 24 23 23 23 24 23 23 23 23 24 25 24
1 2 2 1 2 1 2 2 2 3 6 7 7 6 6 6 2 6 5 5 4 4 5 5 6 8 8 8 7 6 7 7 7 7 7 10 12 12 12 13 13 14 15 15 16 16 17 17 18 19 20 22 24 25 27 28 29 31 33 34 35 34 34 33 33 33 33 32 30 29 29 27 27 27 26 26 26 25 24 24 23 23 24 24 24 24 23 22 23 23 23 22 21 22 23 23 23
4 4 4 4 3 3 5 6 3 3 3 6 7 8 8 8 3 4 5 5 5 6 7 6 6 8 9 8 8 8 8 8 8 9 9 11 13 13 13 13 13 14 15 16 17 17 18 18 18 19 20 22 22 23 24 26 28 30 31 32 33 35 34 34 34 34 33 32 30 29 28 27 27 27 26 26 25 24 23 23 23 23 23 23 24 24 23 22 22 23 23 22 21 21 21 21 21
Wind_Direction
276 307 321 330 353 78 58 60 111 346 90 247 256 193 257 223 234 273 242 229 189 243 227 89 111 135 127 173 199 195 181 176 166 147 207 235 170 176 184 195 191 150 189 200 199 195 196 195 192 188 189 194 196 197 199 201 202 203 201 202 203 204 205 208 208 208 212 213 211 206 209 212 212 213 212 208 204 202 196 194 196 195 193 191 183 179 188 190 182 174 171 170 163 164 167 162 176
289 295 309 210 61 111 142 56 106 21 90 254 256 182 255 258 209 247 232 213 197 224 328 28 111 134 95 166 190 162 240 234 189 163 244 260 177 191 188 202 213 258 197 194 198 197 198 197 197 194 192 195 200 201 203 203 205 207 206 206 206 207 208 210 211 213 215 218 220 217 217 217 215 214 215 213 210 209 204 201 203 199 197 196 188 186 193 195 187 179 177 178 171 170 177 171 177
269 208 149 154 92 76 93 41 90 142 161 230 263 229 235 160 211 233 235 233 240 279 348 347 129 191 127 55 228 157 257 275 233 226 296 251 183 197 194 206 217 231 201 194 200 198 201 201 200 200 195 196 203 206 207 208 209 211 211 209 209 209 211 213 215 215 216 218 221 220 222 226 223 217 217 216 215 216 211 206 205 203 200 200 197 195 197 198 192 186 181 183 182 178 182 178 179
224 157 175 166 95 37 79 61 140 140 180 219 260 249 196 199 225 248 258 257 274 308 328 356 337 222 131 216 238 167 256 279 234 196 307 214 194 204 196 210 223 219 209 203 205 203 206 205 205 204 200 200 203 208 211 211 211 215 217 214 213 212 213 217 219 219 219 220 222 221 225 231 228 221 221 220 219 218 216 211 205 205 202 202 203 202 203 200 196 193 186 185 189 185 184 183 182
185 150 198 165 115 83 112 100 120 136 195 187 216 257 221 215 237 268 280 286 283 245 213 148 265 288 110 212 191 168 243 249 242 203 231 207 193 215 201 217 229 225 221 210 208 209 209 208 210 209 207 205 205 211 213 215 216 217 220 219 219 218 218 220 221 223 223 223 222 224 226 227 225 221 222 223 222 220 218 213 208 207 205 207 208 207 207 205 199 197 194 188 190 192 191 189 187
127 127 142 120 114 139 121 150 163 201 215 169 191 261 237 219 232 262 296 305 273 197 197 163 230 351 29 265 184 206 223 190 277 208 216 196 189 216 212 226 233 231 234 223 216 210 210 210 212 214 214 211 209 213 215 218 221 221 221 221 222 223 224 223 224 225 225 225 224 225 226 224 222 221 224 226 227 226 221 215 212 210 208 212 213 211 210 210 203 199 200 192 192 199 196 196 195
116 128 26 88 84 34 122 182 192 221 233 176 191 249 247 218 217 259 331 331 326 216 188 218 192 78 263 286 274 248 248 239 233 184 192 188 195 213 216 228 233 235 240 239 228 215 212 212 214 218 220 219 215 216 218 222 226 225 222 220 224 226 227 226 226 225 225 226 225 224 222 224 226 224 224 227 231 232 227 220 216 214 214 217 217 215 213 213 209 201 200 194 195 202 201 203 202
79 119 17 98 94 9 118 211 222 208 245 230 226 251 272 268 231 279 335 328 312 302 243 290 3 116 266 332 233 258 262 231 221 182 186 192 199 208 220 228 233 236 241 246 237 219 213 215 217 220 224 226 222 220 223 226 230 229 226 224 225 228 228 227 227 226 225 224 223 223 224 228 230 227 227 230 234 236 233 226 221 221 221 221 221 220 216 216 213 203 199 198 200 206 204 207 206
58 32 102 88 121 12 31 280 263 235 268 286 277 273 294 305 305 323 306 286 292 295 273 285 40 208 272 349 239 277 274 218 215 194 189 200 202 208 223 229 235 238 242 245 241 226 215 216 220 224 227 230 229 225 225 229 233 233 231 228 227 230 228 227 229 229 228 228 227 226 229 232 229 226 228 230 232 237 238 232 228 229 227 226 226 224 221 219 216 206 200 200 204 209 207 209 210
52 23 141 76 113 47 322 293 275 269 268 274 280 275 288 309 325 318 301 292 290 297 287 273 182 233 242 270 252 301 238 206 212 200 192 201 202 208 220 225 234 236 237 236 240 233 218 218 222 227 231 232 235 231 227 231 236 237 234 232 233 233 232 231 233 234 232 231 232 232 235 234 229 225 225 227 228 233 238 237 232 232 232 230 230 230 227 223 220 211 203 203 206 212 209 208 213
57 2 101 81 84 179 249 269 276 279 284 302 302 273 264 279 310 333 339 305 302 298 295 353 65 239 164 284 256 268 250 227 236 220 199 202 205 210 215 221 226 230 234 235 242 237 221 218 221 227 231 234 237 235 231 232 236 239 237 237 236 236 235 234 235 236 233 232 234 236 239 237 233 229 227 227 228 230 235 236 235 234 235 232 232 234 232 227 224 216 209 208 210 214 211 206 211
99 352 66 96 153 190 214 245 273 284 299 314 301 283 274 223 42 344 320 313 335 335 292 330 329 202 46 288 267 305 327 339 314 293 245 221 224 227 224 226 224 226 232 236 241 237 223 218 222 226 230 233 236 238 235 234 237 239 239 238 237 238 236 234 235 234 231 233 238 240 242 240 237 234 232 231 228 230 232 235 236 237 236 235 235 235 235 232 229 224 215 212 214 217 212 204 208
119 139 92 134 189 165 186 217 264 292 306 282 239 285 8 99 125 226 236 318 325 349 298 266 280 89 251 261 295 324 346 351 336 300 271 253 257 258 251 247 240 241 236 235 237 235 227 222 226 231 235 237 238 241 240 239 239 241 242 240 240 241 238 236 236 232 230 233 238 242 245 242 240 238 236 235 234 233 233 235 238 238 238 238 238 237 237 236 233 230 221 217 218 217 211 204 207
135 150 117 172 195 137 181 226 252 229 280 254 232 315 353 122 178 206 132 17 298 221 286 274 171 168 247 290 323 325 332 340 334 277 260 252 255 263 266 269 268 275 266 248 242 241 236 231 235 241 244 245 245 244 244 243 242 243 245 246 247 248 246 243 240 237 233 233 237 242 245 245 243 243 242 242 242 243 241 241 240 239 240 241 241 240 239 239 235 232 227 222 220 220 213 204 205
139 135 95 134 256 176 204 222 209 188 250 239 244 315 359 80 159 146 116 62 271 221 296 287 151 207 214 178 281 280 320 341 344 280 247 244 254 262 269 277 282 297 300 287 265 253 245 241 244 250 254 252 252 249 248 247 244 244 246 249 249 251 256 252 246 245 237 234 240 243 244 246 246 247 249 249 249 251 251 250 248 244 244 243 243 242 241 241 237 233 230 225 226 226 212 200 200
112 106 73 162 220 230 210 201 184 204 254 228 262 274 73 285 189 209 206 165 272 288 344 284 231 319 162 172 227 273 329 355 3 329 232 255 279 280 285 293 293 297 301 307 301 284 265 256 256 257 260 261 261 258 255 252 248 246 246 250 252 254 261 258 252 251 248 242 241 242 242 244 247 250 252 253 253 254 255 256 255 250 248 246 244 243 243 245 241 238 235 225 224 215 199 195 196
74 88 92 228 204 203 202 193 186 197 256 250 297 57 104 287 252 244 240 129 257 286 318 266 272 160 179 197 223 294 355 20 13 343 352 340 327 315 307 304 303 301 305 318 318 310 300 288 280 270 266 266 267 267 265 261 257 253 250 253 258 258 260 262 257 254 255 249 241 241 243 244 247 251 254 256 256 256 258 257 257 253 250 247 244 243 243 245 242 240 237 228 225 208 192 197 198
84 101 161 224 196 202 191 190 201 194 264 260 297 87 141 288 292 287 293 21 320 300 294 281 315 265 224 225 246 333 3 4 1 3 349 336 326 318 309 306 308 308 313 322 325 321 314 310 306 295 282 273 270 269 269 269 266 262 257 258 260 260 260 260 255 253 255 249 244 247 247 248 250 251 254 255 256 259 260 258 258 254 250 247 242 241 241 243 242 238 237 234 232 220 204 204 203
136 129 198 232 196 215 201 196 218 226 266 279 295 272 208 256 269 343 284 282 335 320 292 313 328 288 257 244 252 296 317 317 339 6 329 293 284 287 288 294 296 300 308 313 320 323 316 313 312 308 299 287 278 271 269 270 269 267 264 261 259 258 261 259 257 258 256 250 249 252 249 248 251 253 256 256 257 259 260 260 257 253 249 247 245 244 243 244 244 240 237 236 232 221 212 210 206
185 150 224 245 211 234 243 223 228 237 261 302 303 313 285 257 237 324 274 282 295 275 272 297 302 286 274 253 245 269 284 288 307 323 301 273 265 261 263 275 283 289 295 299 305 310 311 307 303 305 306 300 288 277 271 270 269 267 263 262 259 257 260 261 261 261 258 254 253 253 250 248 251 254 257 258 258 259 259 258 253 251 250 246 245 244 243 243 244 242 236 234 229 220 214 211 206
168 169 211 228 185 240 257 231 237 253 251 273 303 353 310 280 230 249 247 293 288 263 242 234 260 274 278 278 272 276 272 275 293 305 295 280 277 270 263 268 276 284 288 293 295 297 302 300 295 296 301 305 297 284 274 270 268 266 263 261 259 259 259 257 255 254 253 253 254 253 253 253 254 255 258 258 256 255 256 254 247 246 244 240 238 237 236 235 235 237 232 229 227 220 216 213 206
163 222 203 195 154 241 264 234 238 246 196 250 311 320 289 302 314 246 214 253 270 274 249 222 237 255 265 284 303 310 276 280 294 295 287 280 281 279 276 276 278 281 284 288 290 293 297 296 293 290 293 299 300 292 279 270 266 265 266 263 260 259 259 257 257 257 257 257 257 255 254 255 256 257 257 256 252 252 253 250 244 242 239 235 234 234 233 230 231 231 227 224 223 219 216 214 209
251 255 243 228 182 232 264 251 248 219 221 262 269 276 301 336 296 247 218 240 254 264 255 236 241 253 270 291 304 298 280 280 282 279 278 274 275 278 280 283 283 283 283 284 286 287 289 292 291 289 291 293 295 295 286 274 266 262 265 266 265 262 259 259 260 263 266 267 266 262 258 255 255 255 256 255 252 252 252 248 244 243 240 236 232 232 231 229 228 227 224 221 219 216 214 212 209
229 258 300 261 201 230 251 272 282 278 259 255 279 317 310 285 287 284 244 245 252 263 264 255 255 265 278 289 287 282 281 282 279 277 274 267 269 274 278 282 282 283 283 283 283 281 282 283 285 287 287 288 288 289 286 280 272 264 262 263 266 267 264 261 261 264 267 270 273 272 269 260 254 255 254 253 253 254 253 248 244 242 241 237 230 230 230 226 224 222 222 220 216 214 211 209 207
224 240 275 274 232 248 273 296 294 290 267 277 323 300 270 252 276 293 264 252 244 254 272 276 275 287 284 274 272 275 282 284 287 290 285 273 272 271 275 281 282 285 285 285 285 283 281 279 280 283 283 283 283 280 279 277 274 268 261 259 263 266 266 266 264 265 266 268 272 274 273 267 259 256 252 251 254 252 251 248 243 242 242 238 231 229 227 223 221 220 219 218 216 213 209 206 204
225 226 265 289 285 291 311 295 287 295 283 342 299 275 268 252 278 282 264 254 246 239 265 273 279 286 280 278 276 281 291 296 308 308 305 299 295 297 300 302 297 295 294 290 289 288 285 283 280 280 279 280 280 278 275 272 270 268 264 260 261 264 267 269 270 269 268 268 270 271 272 271 265 258 254 257 255 250 251 248 244 243 242 240 235 230 225 222 222 220 216 216 215 212 210 206 202
207 227 247 234 264 278 270 261 266 289 263 185 219 266 273 233 155 272 264 207 15 301 271 268 267 270 272 279 283 297 305 319 324 314 317 319 327 333 330 325 317 313 308 297 294 294 290 287 284 280 278 281 282 280 277 271 266 265 264 263 262 263 267 270 272 272 272 273 276 278 277 275 273 269 265 264 258 252 253 250 245 244 242 241 237 229 223 222 223 222 221 219 216 213 210 207 202
284 321 286 267 291 269 217 247 252 247 251 193 190 270 281 227 178 252 266 346 358 328 290 284 283 276 279 283 286 301 318 348 327 330 350 337 339 339 341 340 329 325 321 312 308 306 296 289 286 283 282 285 288 286 282 275 268 263 261 262 262 264 265 268 271 273 274 278 283 284 282 282 284 283 275 269 267 261 257 252 250 250 244 239 238 234 227 223 223 223 224 224 219 215 211 206 203
324 23 342 311 330 308 272 273 235 188 233 177 150 292 281 260 244 258 276 297 305 305 292 290 285 281 288 287 284 292 320 359 343 15 3 332 335 330 338 344 334 329 326 323 317 311 304 295 288 284 282 284 289 293 293 287 278 268 261 259 260 263 265 270 276 280 281 283 287 288 286 287 287 286 281 275 278 276 265 261 266 273 266 247 238 238 233 227 225 222 220 218 214 210 207 204 203
322 27 20 325 337 314 300 317 312 228 233 147 127 285 271 263 265 272 284 290 290 287 278 277 278 282 286 276 269 278 309 345 337 344 319 311 322 321 328 331 331 329 324 323 317 313 309 303 297 289 282 278 280 289 299 299 291 277 268 264 265 269 272 278 284 286 284 283 285 286 284 284 283 284 283 277 281 285 275 274 286 293 292 273 254 246 236 228 227 225 218 212 209 207 204 202 201
337 334 326 348 319 288 315 346 20 288 270 122 144 252 263 271 278 276 288 307 282 268 269 266 266 274 268 251 249 257 277 311 295 290 294 306 310 313 318 318 323 322 320 320 318 319 316 311 307 298 292 286 277 274 281 289 288 269 265 266 267 271 273 277 281 278 274 271 274 280 282 282 281 281 279 276 279 279 270 278 296 297 297 290 275 259 241 229 229 227 221 214 209 207 203 201 201
19 297 290 342 220 272 317 307 184 213 290 93 150 238 270 274 278 275 296 349 255 244 266 268 268 275 262 243 237 247 263 271 266 260 278 301 304 311 312 314 320 319 320 320 317 318 315 314 313 306 302 297 288 280 276 275 274 260 255 256 255 259 262 268 273 270 267 266 269 277 281 283 285 284 281 280 275 262 258 272 289 294 296 295 285 265 242 232 231 227 223 216 207 205 203 200 200
355 210 258 267 242 285 317 294 235 210 269 130 186 232 269 264 273 277 295 44 165 234 267 269 270 272 254 245 239 240 254 264 263 255 267 293 300 312 311 311 318 320 321 319 318 317 314 314 312 310 309 306 301 293 288 286 283 277 265 257 252 253 255 255 259 263 266 269 271 275 281 284 289 289 284 282 273 256 258 270 282 293 295 297 297 281 252 237 236 229 223 215 207 206 203 198 199
275 190 242 260 245 267 294 297 299 175 181 235 228 235 249 254 272 288 285 266 228 247 267 271 268 260 237 235 241 234 235 244 247 243 267 294 300 307 311 313 316 321 322 322 322 322 320 319 315 313 313 310 307 301 298 296 293 289 274 260 249 236 225 225 234 251 263 277 284 284 285 286 291 291 279 271 264 258 262 267 275 289 296 299 301 292 268 251 248 243 232 218 211 210 203 197 200
229 205 216 260 244 245 259 267 283 44 151 246 256 254 254 258 266 276 277 272 266 261 262 266 267 261 242 222 228 227 224 231 227 215 246 279 296 307 311 311 318 325 325 324 325 324 321 319 319 317 314 311 311 308 302 295 293 304 285 205 159 145 145 167 197 229 305 332 322 317 307 304 311 312 295 272 265 266 272 275 278 282 283 287 297 301 287 270 261 258 253 232 218 214 208 202 201
200 199 189 245 260 246 243 250 254 254 278 260 258 264 262 262 262 259 265 265 263 262 259 259 263 263 251 228 227 223 222 229 208 178 219 296 333 332 333 328 326 331 335 330 325 327 325 322 322 322 322 320 315 310 305 297 289 270 162 143 119 112 115 118 115 94 68 53 42 29 6 3 358 352 345 320 299 289 290 297 302 291 274 271 287 302 299 285 271 260 256 245 227 218 209 205 204
157 213 254 256 273 268 257 264 257 182 220 253 244 258 263 262 262 255 258 262 261 264 263 258 252 255 252 238 233 226 226 225 160 149 151 65 20 13 9 357 344 334 343 343 338 342 345 343 338 339 341 337 332 328 324 320 296 219 164 152 127 111 112 109 97 85 77 71 65 60 46 35 23 11 4 354 340 326 320 320 324 322 304 282 278 287 293 288 276 263 251 241 235 226 210 204 203
242 249 273 274 265 270 274 273 267 198 183 252 247 260 264 259 261 255 248 254 254 254 256 256 251 251 254 246 240 229 221 179 139 138 86 67 42 36 29 23 20 7 2 0 1 3 4 5 3 3 1 356 358 0 1 11 59 118 136 137 131 118 111 105 95 83 77 74 68 63 56 47 38 28 17 8 358 346 341 339 338 336 330 321 295 277 279 278 272 264 250 239 236 236 234 214 200
249 246 271 277 265 281 282 261 268 224 186 256 254 261 268 260 260 256 241 240 245 247 249 253 250 249 251 245 240 225 209 189 163 123 63 56 46 45 38 36 35 26 19 13 14 14 15 20 23 25 23 23 22 20 22 28 53 141 151 136 130 117 102 95 92 84 77 71 64 59 56 51 46 42 34 23 13 2 355 351 350 346 336 333 326 301 280 271 269 267 256 247 238 235 254 242 205
234 227 251 264 264 291 276 253 278 235 211 259 263 269 274 268 264 255 246 240 243 251 255 261 248 242 251 255 248 230 214 198 165 97 47 44 44 41 37 36 33 30 26 22 21 21 24 28 31 34 37 48 58 68 80 86 104 144 146 132 124 114 101 94 90 83 76 70 63 58 53 51 48 46 44 37 31 22 12 4 358 353 345 338 332 321 303 276 264 266 259 251 246 237 243 251 229
234 216 226 252 256 252 250 269 306 280 247 248 267 286 277 262 255 249 265 264 246 256 269 273 258 242 260 298 312 265 203 179 153 110 45 42 42 39 38 36 34 34 31 29 29 28 31 34 37 41 44 58 77 101 115 122 127 131 132 125 118 110 97 84 75 67 66 66 62 60 57 55 53 52 50 46 41 35 28 21 11 1 354 347 341 330 314 290 265 264 260 247 241 237 233 238 239
262 219 219 239 252 254 259 283 316 315 282 228 248 307 280 254 229 243 284 281 233 254 238 248 255 253 284 333 18 55 78 109 118 102 69 51 44 41 41 38 36 37 35 35 36 37 41 43 45 50 54 65 81 102 123 137 138 135 132 123 112 99 80 66 64 63 65 67 65 64 64 61 59 57 56 54 50 45 40 34 27 20 11 3 356 346 330 311 287 266 259 248 240 234 230 234 233
270 229 214 229 244 254 262 276 294 283 277 242 107 326 279 286 276 241 242 228 234 274 248 247 259 267 289 78 97 89 92 93 90 84 70 57 48 44 39 37 37 37 38 43 47 49 52 53 54 57 61 68 78 93 115 132 132 129 126 116 103 94 85 76 76 78 77 74 72 70 68 64 61 61 59 58 57 53 50 47 43 39 34 26 18 8 3 353 327 289 261 251 244 239 235 234 234
256 229 194 208 223 240 245 253 242 236 287 288 147 164 274 288 283 220 194 218 266 276 259 259 266 259 212 108 109 112 119 119 114 97 75 64 56 52 44 42 43 43 47 53 57 58 60 61 62 64 68 73 78 89 105 116 116 113 110 106 98 95 94 89 85 85 83 80 76 72 69 66 64 62 61 60 59 58 56 55 54 52 47 41 38 35 32 28 17 348 295 261 248 246 244 235 225
249 196 163 181 201 221 222 231 244 281 329 293 187 143 252 276 276 65 83 98 254 258 251 254 264 261 169 135 135 127 119 112 114 107 96 81 68 65 60 56 53 57 63 63 64 65 68 69 70 72 75 77 80 89 100 106 109 109 105 101 97 94 95 94 90 87 83 81 77 73 70 68 66 64 62 60 59 59 58 58 58 57 54 50 47 47 45 41 40 38 36 20 300 250 249 234 205
232 149 128 96 119 149 151 218 238 9 306 266 208 155 236 280 278 277 21 95 227 256 258 252 271 280 176 166 158 147 132 111 111 108 104 95 83 79 73 68 62 63 69 71 72 72 73 75 74 74 77 79 83 90 97 101 103 104 102 99 97 94 93 92 89 84 81 79 75 71 69 67 65 65 64 62 61 60 59 58 58 58 57 55 53 51 50 47 47 46 48 51 49 56 67 133 160
123 102 76 12 27 54 48 241 90 54 276 259 198 185 207 281 293 190 224 213 204 252 284 282 296 296 196 181 170 164 152 139 133 119 112 101 88 82 75 65 58 60 70 73 70 71 75 77 77 79 80 81 85 90 95 97 98 98 97 97 95 92 89 87 84 78 75 75 72 68 67 66 65 64 64 63 63 63 62 59 58 59 59 59 57 55 53 51 50 50 51 53 55 58 66 83 104
94 74 38 346 318 16 25 359 51 150 258 269 184 182 196 240 267 215 252 245 203 210 249 270 276 264 219 190 175 169 159 149 138 123 112 96 73 61 58 51 49 51 58 60 59 66 73 74 78 82 81 81 84 88 92 95 95 95 95 95 94 91 88 84 80 75 72 72 70 67 66 65 64 63 62 62 61 61 62 62 61 60 59 59 60 59 60 59 57 55 55 56 57 58 60 71 79
109 113 79 1 323 7 351 305 344 218 251 249 162 126 209 245 261 263 264 269 240 212 226 252 266 267 241 201 180 165 148 134 115 90 73 64 47 42 41 39 41 43 46 49 50 59 67 69 74 78 77 78 82 86 90 93 93 93 93 93 92 91 89 84 80 77 74 72 71 69 65 63 61 61 60 60 60 61 62 61 61 61 59 59 61 62 62 63 63 62 61 60 60 61 61 65 70
146 159 146 142 90 1 286 274 277 265 272 262 202 115 276 277 277 243 248 272 261 234 254 267 271 280 273 212 154 112 82 69 61 55 49 44 39 39 37 36 38 40 43 46 44 53 63 64 67 71 73 75 79 84 88 90 90 91 92 92 91 90 88 84 81 79 76 74 73 72 68 64 63 62 62 62 62 64 64 63 62 63 62 60 61 63 63 63 65 67 65 62 60 62 65 66 68
177 165 138 144 155 209 259 275 281 284 291 279 220 126 234 270 259 214 231 293 278 254 281 290 293 305 324 54 66 57 54 52 49 49 48 46 43 42 40 38 37 38 43 44 41 47 55 56 59 63 66 70 76 81 84 86 87 89 91 91 91 90 87 85 83 81 79 76 75 75 72 69 68 65 65 66 66 67 66 64 63 62 62 62 61 62 63 64 64 65 66 65 61 59 63 65 62
212 124 106 168 182 183 246 269 264 283 299 281 247 191 218 227 248 226 329 309 284 291 352 354 3 15 37 55 58 60 62 60 61 62 59 54 50 48 44 40 37 38 43 44 40 43 47 49 52 54 58 62 68 75 80 83 86 88 89 89 90 90 88 86 84 82 81 79 77 76 74 72 71 69 68 68 67 67 66 65 64 63 61 61 61 60 61 61 62 63 62 63 62 59 61 62 61
105 115 186 227 175 145 215 277 270 278 285 277 276 272 271 292 312 345 10 320 297 312 346 14 29 38 52 67 77 82 84 80 77 77 75 68 59 54 49 44 41 40 42 43 43 46 50 52 52 54 58 60 61 66 74 80 84 86 85 86 87 88 86 84 83 83 82 81 79 77 74 73 72 70 68 68 67 66 66 64 63 62 61 61 61 61 61 60 61 61 60 60 60 59 60 61 62
127 193 227 249 50 105 124 280 291 275 259 262 270 275 285 296 291 330 12 334 304 289 280 18 76 83 88 104 107 105 109 108 107 106 102 97 88 80 72 64 57 50 46 45 43 45 51 57 61 60 59 60 59 64 71 74 78 81 80 82 85 86 84 83 83 82 82 81 78 76 74 72 70 69 68 66 66 65 64 63 62 61 60 60 59 60 60 60 60 60 60 59 59 58 58 58 59
135 235 245 93 332 284 295 234 275 272 271 272 265 267 275 274 267 303 350 304 292 282 258 261 187 153 147 140 136 141 143 139 136 132 127 119 111 104 98 89 79 69 59 51 47 47 48 50 57 62 64 67 66 69 74 73 75 79 79 80 83 84 83 82 81 81 80 78 75 74 74 71 69 68 67 65 64 64 62 61 60 59 58 58 57 57 58 58 58 58 57 56 56 56 56 54 54
26 294 319 81 192 231 233 236 261 268 276 284 273 266 270 271 243 191 234 266 280 283 253 240 219 188 177 167 162 163 159 153 143 134 127 116 110 104 100 95 89 82 73 64 55 51 49 48 50 54 62 70 70 71 75 74 73 76 77 78 79 79 79 78 78 78 76 74 73 72 71 70 68 66 65 64 62 61 61 60 59 58 57 56 55 54 54 55 55 54 53 53 52 53 53 50 49
267 261 282 288 256 265 277 264 242 251 268 277 276 268 269 280 217 169 220 252 240 233 237 237 214 192 190 183 172 160 150 149 142 132 125 116 110 104 100 96 90 85 81 77 68 57 54 53 51 50 54 60 62 64 67 67 68 72 73 72 71 71 71 72 72 72 71 69 69 69 68 68 67 64 62 62 60 59 59 59 58 57 56 55 53 52 51 52 53 51 49 49 48 49 48 46 44
213 222 227 225 236 270 283 271 230 198 241 261 273 275 271 279 269 180 212 226 215 215 223 231 214 193 193 185 169 155 147 146 139 130 125 119 114 108 102 95 89 85 83 82 79 73 66 60 55 53 54 55 55 55 58 61 64 66 66 65 65 65 65 65 65 64 64 63 62 63 64 64 63 61 60 59 58 58 57 57 57 56 55 54 53 50 48 49 50 47 45 45 45 45 42 39 39